Location: Biecz
(49.7321°N, 21.2507°E)
Time: 16:40:37
(UTC+01:00)

ISS - Visible Passes

Search period start: 20 November 2017 00:00
Search period end: 30 November 2017 00:00
Orbit: 402 x 407 km, 51.6° (Epoch: 21 November)

Date Brightness Start Highest point End Pass type
(mag) Time Alt. Az. Time Alt. Az. Time Alt. Az.
27 Nov -1.2 17:34:32 10° SSE 17:34:58 11° SSE 17:34:58 11° SSE visible
28 Nov -1.3 18:16:36 10° SW 18:17:35 17° SSW 18:17:35 17° SSW visible
29 Nov -2.3 17:24:42 10° SSW 17:27:22 23° SE 17:27:28 23° SE visible
